Date,TemperatureHighF,TemperatureAvgF,TemperatureLowF,DewpointHighF,DewpointAvgF,DewpointLowF,HumidityHigh,HumidityAvg,HumidityLow,PressureMaxIn,PressureMinIn,WindSpeedMaxMPH,WindSpeedAvgMPH,GustSpeedMaxMPH,PrecipitationSumIn
2013-5-1,88.0,71.8,54.1,60.0,54.6,49.5,90,59,30,29.95,29.79,11,4,11,0.00
2013-5-2,64.9,49.5,36.1,60.4,47.2,35.9,99,92,81,30.08,29.92,11,6,11,0.09
2013-5-3,36.9,34.2,32.5,36.1,33.9,32.3,99,99,95,30.02,29.77,11,7,14,0.48
2013-5-4,50.9,43.5,33.1,41.1,36.4,32.8,99,77,53,29.85,29.69,7,3,8,0.54
2013-5-5,59.0,50.3,38.8,49.7,44.4,37.8,99,81,66,29.89,29.81,10,6,12,0.00
2013-5-6,70.7,61.7,52.2,56.7,52.7,49.0,99,75,48,29.90,29.82,11,8,11,0.00
2013-5-7,85.5,67.4,53.4,55.0,47.8,35.8,95,58,18,29.93,29.85,10,4,10,0.00
2013-5-8,82.8,64.7,50.5,60.1,53.4,45.2,99,71,28,29.93,29.82,10,3,10,0.01
2013-5-9,85.5,67.8,59.0,63.4,58.1,53.4,99,75,34,29.85,29.75,12,6,12,0.22
2013-5-10,70.3,62.3,55.9,60.9,56.8,52.2,99,83,57,29.89,29.75,9,5,12,0.00
2013-5-11,74.3,63.4,46.9,55.5,38.0,11.4,99,47,10,30.05,29.89,12,7,16,0.01
2013-5-12,73.0,60.9,37.2,35.7,18.2,5.2,82,26,10,30.14,30.01,8,4,12,0.00
2013-5-13,86.9,65.2,44.1,49.1,37.2,25.1,78,44,11,30.06,29.90,11,4,11,0.00
2013-5-14,98.1,77.4,58.3,52.5,42.1,27.9,75,36,10,29.88,29.77,18,8,18,0.00
2013-5-15,94.5,75.3,62.4,64.8,56.7,48.6,96,56,29,29.85,29.75,10,6,10,0.07
2013-5-16,78.1,66.1,60.4,66.3,61.4,57.4,99,86,56,29.81,29.74,11,4,11,0.01
2013-5-17,83.5,70.6,60.6,66.7,61.7,59.2,99,77,45,29.83,29.75,8,2,8,0.00
2013-5-18,90.3,77.2,60.3,71.9,68.2,60.0,99,76,46,29.84,29.71,11,5,15,0.00
2013-5-19,93.9,83.5,67.8,75.9,67.4,58.4,99,63,34,29.76,29.55,12,7,23,0.00
2013-5-20,77.9,69.8,59.5,71.2,66.7,59.3,99,90,74,29.75,29.59,9,5,14,0.35
2013-5-21,77.5,66.8,59.2,64.0,61.0,58.0,99,83,51,29.71,29.52,13,4,13,0.00
2013-5-22,77.4,65.2,55.4,60.4,55.8,51.9,99,75,45,29.81,29.61,16,5,16,0.00
2013-5-23,75.2,63.3,53.2,56.3,54.0,51.7,99,75,46,30.06,29.80,9,4,9,0.00
2013-5-24,79.0,69.9,47.5,55.8,39.6,27.7,99,39,18,30.22,30.06,12,6,17,0.00
2013-5-25,90.0,75.4,51.8,64.2,55.7,45.2,79,52,38,30.11,29.95,6,5,11,0.00
2013-5-26,95.4,81.9,60.4,66.9,62.9,58.8,98,56,31,30.00,29.85,11,5,11,0.00
2013-5-27,88.2,76.4,64.0,69.5,66.9,63.8,99,75,52,29.89,29.69,11,5,15,0.00